Boneville, GA

9:56 PM EDT on September 25, 2016 (GMT -0400)
Thomson-McDuffie County

Weather History for KHQU - February, 2013

Change the Weather History Date:

Thursday, February 7, 2013

  Actual Average (KDBN) Record (KDBN)
Temperature  
Mean Temperature 40 °F -  
Max Temperature 46 °F 56 °F 79 °F (1937)
Min Temperature 33 °F 33 °F 15 °F (1978)
Degree Days  
Heating Degree Days 26    
Moisture  
Dew Point 42 °F    
Average Humidity 99    
Maximum Humidity 100    
Minimum Humidity 92    
Precipitation  
Precipitation 0.00 in - - ()
Sea Level Pressure  
Sea Level Pressure 30.09 in    
Wind  
Wind Speed 4 mph (NNE)    
Max Wind Speed 15 mph    
Max Gust Speed 24 mph    
Visibility 7 miles    
Events      
Averages and records for this station are not official NWS values.
T = Trace of Precipitation, MM = Missing Value Source: NWS Daily Summary

Daily Weather History Graph

Daily Weather History Graph

Search for Another Location

Airport or City:

Trip Planner

Search our weather history database for the weather conditions in past years. The results will help you decide how hot, cold, wet, or windy it might be!

Date:

Astronomy

Feb. 07, 2013 Rise Set
Actual Time 7:21 AM EST 6:07 PM EST
Civil Twilight 6:55 AM EST 6:33 PM EST
Nautical Twilight 6:26 AM EST 7:02 PM EST
Astronomical Twilight 5:57 AM EST 7:31 PM EST
Moon 4:55 AM EST (2/7) 3:34 PM EST (2/7)
Length of Visible Light 11h 37m
Length of Day
10h 46m
Waning Crescent, 9% of the Moon is Illuminated
Feb 7
Waning Crescent
Feb 10
New
Feb 17
First Quarter
Feb 25
Full
Mar 4
Last Quarter

Hourly Weather History & Observations

Time (EST) Temp. Windchill Dew Point Humidity Pressure Visibility Wind Dir Wind Speed Gust Speed Precip Events Conditions
12:15 AM 37.4 °F - 36.5 °F 97% 30.19 in 10.0 mi Calm Calm - N/A   Clear
12:35 AM 36.9 °F - 36.7 °F 99% 30.18 in 10.0 mi Calm Calm - N/A   Clear
12:55 AM 36.5 °F - 36.0 °F 98% 30.18 in 10.0 mi Calm Calm - N/A   Clear
1:15 AM 36.9 °F - 36.1 °F 97% 30.18 in 10.0 mi Calm Calm - N/A   Clear
1:55 AM 35.1 °F - 35.1 °F 100% 30.18 in 10.0 mi Calm Calm - N/A   Clear
2:15 AM 35.4 °F - 35.4 °F 100% 30.18 in 10.0 mi Calm Calm - N/A   Clear
2:35 AM 35.6 °F - 35.6 °F 100% 30.17 in 10.0 mi Calm Calm - N/A   Clear
2:55 AM 34.7 °F - 34.7 °F 100% 30.17 in 10.0 mi Calm Calm - N/A   Clear
3:15 AM 33.8 °F - 33.8 °F 100% 30.18 in 10.0 mi Calm Calm - N/A   Clear
3:35 AM 34.3 °F - 34.3 °F 100% 30.19 in 10.0 mi Calm Calm - N/A   Clear
3:55 AM 34.9 °F - 34.9 °F 100% 30.20 in 10.0 mi Calm Calm - N/A   Clear
4:15 AM 35.6 °F - 35.6 °F 100% 30.20 in 10.0 mi Calm Calm - N/A   Clear
4:35 AM 36.0 °F - 36.0 °F 100% 30.20 in 10.0 mi Calm Calm - N/A   Clear
4:55 AM 35.8 °F - 35.8 °F 100% 30.20 in 10.0 mi Calm Calm - N/A   Clear
5:15 AM 36.5 °F - 36.5 °F 100% 30.19 in 10.0 mi Calm Calm - N/A   Clear
5:35 AM 36.7 °F - 36.7 °F 100% 30.19 in 10.0 mi Calm Calm - N/A   Clear
5:55 AM 36.9 °F - 36.9 °F 100% 30.19 in 10.0 mi Calm Calm - N/A   Clear
6:15 AM 36.7 °F - 36.7 °F 100% 30.19 in 10.0 mi Calm Calm - N/A   Clear
7:15 AM 39.2 °F - 39.2 °F 100% 30.18 in 10.0 mi Calm Calm - N/A   Scattered Clouds
7:35 AM 40.3 °F 38.2 °F 40.3 °F 100% 30.18 in 10.0 mi NE 3.5 mph - N/A   Clear
7:55 AM 42.4 °F 40.7 °F 42.4 °F 100% 30.19 in 10.0 mi NNE 3.5 mph - N/A   Mostly Cloudy
8:15 AM 44.4 °F 41.2 °F 43.5 °F 97% 30.18 in 10.0 mi NNE 5.8 mph - N/A   Scattered Clouds
8:35 AM 45.1 °F 42.8 °F 44.1 °F 96% 30.19 in 10.0 mi NNE 4.6 mph - N/A   Mostly Cloudy
8:55 AM 44.8 °F 42.4 °F 44.2 °F 98% 30.19 in 10.0 mi North 4.6 mph - N/A   Overcast
9:15 AM 45.9 °F 42.3 °F 44.1 °F 93% 30.19 in 10.0 mi North 6.9 mph - N/A   Overcast
9:35 AM 45.9 °F 42.3 °F 43.7 °F 92% 30.18 in 7.0 mi NE 6.9 mph - N/A   Overcast
9:55 AM 45.0 °F 41.2 °F 43.5 °F 95% 30.18 in 7.0 mi NNE 6.9 mph - N/A   Overcast
10:15 AM 44.6 °F 41.4 °F 44.6 °F 100% 30.18 in 4.0 mi NE 5.8 mph - N/A   Overcast
10:35 AM 44.8 °F 41.6 °F 44.8 °F 100% 30.18 in 7.0 mi NE 5.8 mph - N/A   Overcast
10:55 AM 45.1 °F 42.8 °F 45.1 °F 100% 30.18 in 5.0 mi NNE 4.6 mph - N/A   Overcast
11:15 AM 45.5 °F 43.2 °F 45.5 °F 100% 30.18 in 4.0 mi NE 4.6 mph - N/A   Overcast
11:35 AM 45.3 °F 41.1 °F 45.3 °F 100% 30.17 in 3.0 mi NE 8.1 mph - N/A   Overcast
11:55 AM 45.0 °F 42.6 °F 45.0 °F 100% 30.16 in 2.5 mi NE 4.6 mph - N/A   Overcast
12:15 PM 45.1 °F 40.8 °F 45.1 °F 100% 30.14 in 2.5 mi NNE 8.1 mph - N/A   Overcast
12:35 PM 45.1 °F 40.3 °F 45.1 °F 100% 30.13 in 4.0 mi NE 9.2 mph - N/A   Overcast
12:55 PM 45.5 °F 42.5 °F 45.5 °F 100% 30.12 in 3.0 mi NE 5.8 mph - N/A   Overcast
1:15 PM 45.5 °F - 45.5 °F 100% 30.11 in 2.5 mi Calm Calm - N/A   Overcast
1:35 PM 45.5 °F 42.5 °F 45.5 °F 100% 30.11 in 1.2 mi NNE 5.8 mph - N/A   Overcast
1:55 PM 45.0 °F 39.3 °F 45.0 °F 100% 30.09 in 2.0 mi NNE 11.5 mph 17.3 mph N/A   Overcast
2:15 PM 45.0 °F 38.9 °F 45.0 °F 100% 30.08 in 2.0 mi NE 12.7 mph 17.3 mph N/A   Overcast
2:35 PM 45.0 °F 40.1 °F 45.0 °F 100% 30.08 in 1.8 mi NE 9.2 mph - N/A   Overcast
2:55 PM 45.5 °F 40.3 °F 45.5 °F 100% 30.06 in 2.0 mi NNE 10.4 mph - N/A   Overcast
3:15 PM 45.7 °F 40.2 °F 45.7 °F 100% 30.04 in 3.0 mi NE 11.5 mph 18.4 mph N/A   Overcast
3:35 PM 46.0 °F 40.6 °F 46.0 °F 100% 30.03 in 3.0 mi ENE 11.5 mph 18.4 mph N/A   Overcast
3:55 PM 46.0 °F 40.2 °F 46.0 °F 100% 30.03 in 2.0 mi NE 12.7 mph 18.4 mph N/A   Overcast
4:15 PM 46.2 °F 41.7 °F 46.2 °F 100% 30.03 in 1.8 mi NE 9.2 mph - N/A   Overcast
4:35 PM 46.4 °F 41.5 °F 46.4 °F 100% 30.01 in 1.8 mi NE 10.4 mph 17.3 mph N/A   Overcast
4:55 PM 46.4 °F 41.1 °F 46.4 °F 100% 29.98 in 3.0 mi NE 11.5 mph 19.6 mph N/A   Overcast
5:15 PM 46.4 °F 41.1 °F 46.4 °F 100% 29.98 in 7.0 mi NE 11.5 mph 17.3 mph N/A   Overcast
5:35 PM 46.4 °F 41.5 °F 46.4 °F 100% 29.97 in 5.0 mi NE 10.4 mph 18.4 mph N/A   Overcast
5:55 PM 45.9 °F 40.8 °F 45.9 °F 100% 29.97 in 7.0 mi NNE 10.4 mph 17.3 mph N/A   Overcast
6:15 PM 45.5 °F 40.3 °F 45.5 °F 100% 29.97 in 4.0 mi NNE 10.4 mph 18.4 mph N/A   Overcast
6:35 PM 45.1 °F 40.8 °F 45.1 °F 100% 29.97 in 3.0 mi NNE 8.1 mph - N/A   Overcast
6:55 PM 45.1 °F 40.3 °F 45.1 °F 100% 29.98 in 2.5 mi North 9.2 mph 16.1 mph N/A   Overcast
7:15 PM 45.1 °F 41.4 °F 45.1 °F 100% 30.00 in 2.0 mi North 6.9 mph - N/A   Overcast
7:35 PM 45.0 °F 40.1 °F 45.0 °F 100% 29.98 in 2.0 mi NE 9.2 mph - N/A   Overcast
7:55 PM 45.1 °F 38.4 °F 45.1 °F 100% 29.93 in 4.0 mi NE 15.0 mph 24.2 mph N/A   Overcast
8:15 PM 45.5 °F 39.9 °F 45.5 °F 100% 29.94 in 10.0 mi NE 11.5 mph 19.6 mph N/A   Overcast
8:35 PM 45.7 °F 41.0 °F 45.7 °F 100% 29.96 in 10.0 mi North 9.2 mph - N/A   Overcast
8:55 PM 45.5 °F 40.3 °F 45.5 °F 100% 29.96 in 7.0 mi NNE 10.4 mph - N/A   Overcast
9:15 PM 45.0 °F 39.3 °F 45.0 °F 100% 29.97 in 10.0 mi NNE 11.5 mph - N/A   Overcast
9:35 PM 44.6 °F 41.4 °F 44.6 °F 100% 29.97 in 10.0 mi NNE 5.8 mph - N/A   Overcast
9:55 PM 44.2 °F 39.2 °F 44.2 °F 100% 29.96 in 10.0 mi NNE 9.2 mph - N/A   Overcast
10:15 PM 44.4 °F 38.6 °F 44.4 °F 100% 29.97 in 10.0 mi North 11.5 mph 18.4 mph N/A   Overcast
10:35 PM 44.2 °F 39.2 °F 44.2 °F 100% 29.97 in 10.0 mi North 9.2 mph - N/A   Overcast
10:55 PM 44.1 °F 39.0 °F 44.1 °F 100% 29.96 in 10.0 mi North 9.2 mph 16.1 mph N/A   Overcast
11:15 PM 43.9 °F 38.8 °F 43.9 °F 100% 29.96 in 10.0 mi NNE 9.2 mph - N/A   Overcast
11:35 PM 43.7 °F 38.6 °F 43.7 °F 100% 29.97 in 10.0 mi North 9.2 mph - N/A   Overcast
11:55 PM 43.3 °F 38.6 °F 43.3 °F 100% 29.98 in 10.0 mi North 8.1 mph - N/A   Overcast